Regional Weather Roundup
Issued by NWS

Home | Current Version | Previous Version | Graphics & Text | Print | Product List | Glossary On
Versions: 1 2 3 4 5 6 7 8 9 10 11 12 13 14 15 16 17 18 19 20 21 22 23 24 25 26 27 28 29 30 31 32 33 34 35 36 37 38 39 40 41 42 43 44 45 46 47 48 49 50
000
ASUS43 KDMX 291101
RWRIA

WEATHER ROUNDUP FOR IOWA
NATIONAL WEATHER SERVICE DES MOINES IA
600 AM CDT WED MAR 29 2017

NOTE: "FAIR" INDICATES FEW OR NO CLOUDS BELOW 12,000 FEET WITH NO
SIGNIFICANT WEATHER AND/OR OBSTRUCTIONS TO VISIBILITY.

* - THESE STATIONS ARE NOT NWS STATIONS...THUS NOT UNDER NWS
QUALITY CONTROL.  THEY ALSO DO NOT REPORT WEATHER SUCH
AS PRECIPITATION OR FOG.

IAZ001>003-012>014-020>022-031>034-043>046-291200-
   NORTHWEST IOWA

CITY           SKY/WX    TMP DP  RH WIND       PRES   REMARKS
CARROLL *      MIX PCPN  43  43 100 E14       30.09F
CHEROKEE *     LGT RAIN  43  43 100 NE6       30.13S
DENISON *      LGT RAIN  45  43  93 NE13      30.07F
LE MARS *      DRIZZLE   45  43  93 NE6       30.12S
ORANGE CITY *  DRIZZLE   43  41  93 E5        30.12S
SHELDON *      CLOUDY    41  39  93 E5        30.12R
SIOUX CITY     LGT RAIN  45  44  97 E12       30.09F
SPENCER        CLOUDY    42  40  92 E6        30.15R
STORM LAKE *   LGT RAIN  43  43 100 E12       30.12S
$$

IAZ055>058-069>071-079>083-090>094-291200-
   SOUTHWEST IOWA

CITY           SKY/WX    TMP DP  RH WIND       PRES   REMARKS
ATLANTIC *     RAIN      46  45  93 NE9G15    30.05F
AUDUBON *      LGT RAIN  45  41  87 NE13G18   30.07F
CLARINDA *     CLOUDY    48  48 100 NE9       30.05R FOG
COUNCIL BLFS * RAIN      45  45 100 E16G22    30.02F
CRESTON *      CLOUDY    45  45 100 E13       30.05F FOG
HARLAN  *      HVY RAIN  45  45 100 NE13      30.08F
LAMONI         CLOUDY    46  44  93 NE12      30.04F
RED OAK *      RAIN      46  46 100 NE13      30.04R
SHENANDOAH *   HVY RAIN  46  46 100 NE14      30.01F
$$

IAZ047>049-059>061-072>074-084-291200-
   CENTRAL IOWA

CITY           SKY/WX    TMP DP  RH WIND       PRES   REMARKS
AMES           CLOUDY    44  41  89 E9        30.12S
ANKENY *       CLOUDY    43  41  93 NE7       30.11F
BOONE *        CLOUDY    43  43 100 NE12      30.11S
CHARITON *     CLOUDY    45  41  87 E8        30.08F
DES MOINES     CLOUDY    45  40  82 E7        30.10S
GRINNELL*      CLOUDY    41  39  92 E10       30.12R
MARSHALLTOWN   CLOUDY    42  40  92 E7        30.13R
NEWTON *       CLOUDY    43  39  87 NE15      30.08F
PELLA *        CLOUDY    43  40  90 E7        30.10R
PERRY *        CLOUDY    44  41  90 NE8       30.10F
$$

IAZ004>006-015-016-023>025-035-036-291200-
   NORTH CENTRAL IOWA

CITY           SKY/WX    TMP DP  RH WIND       PRES   REMARKS
ALGONA *       CLOUDY    43  41  93 SE5       30.16R
CLARION *      CLOUDY    43  43 100 CALM      30.16R
ESTHERVILLE    CLOUDY    39  39 100 NE5       30.15R
FORT DODGE *   CLOUDY    43  37  81 E3        30.16R
MASON CITY     CLOUDY    41  38  89 E6        30.16S
FOREST CITY *  CLOUDY    41  37  87 E7        30.16R
WEBSTER CITY * CLOUDY    43  41  93 E6        30.14R
IOWA FALLS *   CLOUDY    43  40  89 E3        30.15R
$$

IAZ007>011-017>019-026>030-037>042-050>054-066-291200-
   NORTHEAST IOWA

CITY           SKY/WX    TMP DP  RH WIND       PRES   REMARKS
CEDAR RAPIDS   CLOUDY    39  39 100 E14       30.13F FOG     WCI  31
CHARLES CITY * CLOUDY    43  39  87 E10       30.16F
CLINTON *      CLOUDY    40  38  93 E12       30.18S WCI  33
DECORAH *      MOCLDY    41  37  87 E12       30.18S
DUBUQUE        MOCLDY    38  36  92 NE6       30.19S WCI  33
MONTICELLO *   CLOUDY    39  37  93 NE9       30.15F WCI  33
OELWEIN *      CLOUDY    39  39 100 E16       30.16F WCI  30
WATERLOO       CLOUDY    41  37  86 E13       30.14F
$$

IAZ064-065-067-068-078-291200-
   EAST CENTRAL IOWA

CITY           SKY/WX    TMP DP  RH WIND       PRES   REMARKS
DAVENPORT      CLOUDY    43  40  89 E20G25    30.15F
IOWA CITY      CLOUDY    42  38  85 E10       30.16F
MUSCATINE *    CLOUDY    43  41  93 E7        30.16R
QUAD CITIES    CLOUDY    44  40  85 E14       30.14F
$$

IAZ062-063-075>077-085>089-095>099-291200-
   SOUTHEAST IOWA

CITY           SKY/WX    TMP DP  RH WIND       PRES   REMARKS
BURLINGTON     CLOUDY    41  40  96 E12       30.10F
FAIRFIELD *    CLOUDY    41  39  93 E20G29    30.06F FOG
FORT MADISON * CLOUDY    43  39  87 E16G22    30.09S
KEOKUK *       CLOUDY    43  41  93 E15G23    30.07R
OSKALOOSA *      N/A     42  40  93 E15       30.08F
CENTERVILLE *  CLOUDY    45  43  93 NE6       30.08S
OTTUMWA        CLOUDY    43  41  93 E12       30.08R
WASHINGTON *   CLOUDY    41  41 100 E15       30.13S
$$

ABBREVIATIONS USED IN REMARKS
   TC - TEMPERATURES IN CELSIUS
  WCI - WIND CHILL INDEX
   HX - HEAT INDEX
  VSB - VISIBILITY
$$





USA.gov is the U.S. government's official web portal to all federal, state and local government web resources and services.